Location: Bluff Heights
(33.7692°N, 118.1592°W)
Time: 06:05:39
(UTC+00:00)

First-Move - Pass Details

Date: 29 September 2021
Orbit: 574 x 666 km, 97.6° (Epoch: 16 October)

Event Time Altitude Azimuth Distance (km) Brightness Sun altitude
Rises 12:04:50 0° 18° (NNE) 2,833 ? -21.7°
Reaches altitude 10° 12:07:05 10° 24° (NNE) 1,916 ? -21.2°
Maximum altitude 12:11:06 47° 99° (E) 769 ? -20.4°
Drops below altitude 10° 12:15:01 10° 174° (S) 1,877 ? -19.6°
Sets 12:17:12 0° 180° (S) 2,768 ? -19.2°
